Wetbulb
73.55 73.05 72.39 70.24 61.03 59.64 57.03 58.16 63.02 61.81 61.37 66.16 66.80 65.07 63.65 64.64 61.01 56.36 68.68 70.33 71.89 72.21 74.01 76.41 78.17 78.23 78.10 77.96 78.12 77.79 77.62 77.19 77.36 77.77 77.80 76.91 76.84 77.16 76.94 76.67 76.73 76.65 76.38 76.31 76.34 76.09 75.92 75.97 75.36
72.45 71.76 72.08 66.83 60.03 54.10 55.51 61.30 60.06 62.95 65.30 66.61 67.05 66.37 64.53 61.85 65.63 66.69 67.17 70.08 71.81 72.46 73.95 75.63 77.79 78.07 77.48 78.01 78.19 77.84 76.99 77.25 77.45 77.98 77.67 77.16 77.59 77.57 76.77 76.85 77.08 76.77 76.41 76.17 75.87 75.79 75.73 75.51 75.26
72.08 72.90 66.07 62.33 58.32 54.65 55.85 61.77 63.27 65.26 67.18 66.76 65.64 67.53 66.04 62.72 67.11 66.73 69.64 71.04 71.64 72.36 74.56 75.66 78.05 78.20 78.02 77.86 78.03 78.20 77.76 77.13 77.20 77.57 76.97 77.14 77.87 77.22 76.97 76.53 76.58 76.58 76.36 76.17 76.06 75.67 75.45 75.20 74.95
71.80 70.50 67.83 59.93 57.19 59.89 60.01 63.12 65.62 65.04 66.70 67.65 66.45 63.17 65.98 68.61 67.41 69.07 70.82 70.96 70.89 73.60 75.06 77.12 77.83 77.86 78.18 77.93 78.00 77.41 77.15 76.82 77.47 77.56 77.03 77.28 77.51 77.06 76.90 76.70 76.73 76.42 76.45 76.29 76.15 75.90 75.73 75.47 75.14
72.34 67.41 57.73 55.81 56.50 61.10 63.66 65.21 66.03 64.26 65.28 65.55 66.35 61.27 61.88 67.37 69.58 70.23 70.11 70.84 72.06 73.49 75.26 76.18 78.13 78.18 78.27 78.08 77.44 77.69 77.13 77.05 77.31 77.18 76.85 77.02 77.11 77.20 76.95 76.70 76.65 76.62 76.56 76.48 76.23 76.06 75.92 75.87 75.15
65.92 64.30 56.34 53.91 56.82 61.39 63.63 66.67 66.19 65.52 65.91 65.10 63.53 63.54 63.96 68.24 68.08 68.18 69.37 69.95 73.51 73.51 74.86 75.55 77.49 78.38 78.14 77.35 77.16 77.82 77.08 76.89 77.37 77.19 76.63 76.80 76.75 77.08 77.91 76.87 76.54 76.56 76.45 76.06 75.87 75.87 75.73 75.87 75.23
63.93 58.33 53.99 56.42 57.81 60.50 64.07 67.20 65.44 65.31 65.09 64.39 66.78 62.49 64.65 65.84 67.86 68.26 67.54 72.18 73.42 73.63 74.32 74.98 75.41 76.05 77.33 78.09 77.49 77.32 76.97 77.14 77.06 76.85 76.60 76.44 76.48 76.51 76.62 76.75 77.43 76.53 76.50 76.28 75.95 75.65 75.79 75.95 75.34
66.68 58.69 54.25 58.06 57.51 57.41 64.64 66.16 67.63 66.07 64.85 69.49 68.61 62.46 62.64 66.60 66.25 66.57 69.82 71.61 72.32 73.41 74.35 74.12 74.14 74.14 74.41 74.96 77.36 77.14 77.08 77.08 76.96 76.80 76.45 76.12 75.73 75.95 76.15 77.21 77.57 76.78 76.13 75.91 75.55 75.64 76.12 76.17 75.56
69.54 59.62 56.88 58.15 57.99 59.51 63.07 64.60 68.37 69.52 66.74 67.59 68.14 67.19 68.16 67.13 66.89 69.59 69.75 69.72 70.64 72.25 73.19 73.43 73.09 72.75 73.09 73.81 75.37 76.72 77.04 77.01 76.93 76.67 76.78 75.39 74.02 73.85 74.73 75.49 76.98 76.13 75.89 75.92 75.88 77.09 77.64 76.78 75.50
62.78 57.77 58.59 62.06 62.50 60.89 62.86 63.82 66.67 66.04 65.39 65.29 66.21 68.67 68.74 68.69 69.22 68.39 68.23 68.34 68.86 70.25 71.57 72.09 72.24 72.33 72.92 74.41 73.51 73.70 74.54 73.89 73.77 73.71 67.21 68.08 70.85 73.46 75.16 76.02 77.76 76.61 76.81 77.43 77.34 75.51 76.51 75.20 72.11
63.73 58.96 61.71 62.21 63.51 64.98 62.42 63.03 65.27 64.92 63.28 65.27 64.69 66.53 68.03 69.20 68.42 68.21 68.37 68.93 69.39 70.06 70.58 70.57 72.14 72.88 72.11 72.84 72.90 73.14 72.52 72.25 72.92 71.36 70.65 67.54 74.02 73.49 73.28 72.69 72.44 65.62 71.02 72.38 73.36 72.60 72.72 72.45 72.57
60.44 64.44 63.07 63.67 64.42 64.22 63.04 63.12 62.98 66.13 65.94 68.42 68.39 68.19 68.03 68.22 67.54 68.04 68.46 68.65 69.10 69.03 69.12 70.23 71.83 72.20 71.38 71.90 71.86 72.47 72.19 72.10 71.37 72.68 71.33 67.46 72.00 68.70 71.39 72.98 71.12 70.60 70.94 71.95 72.89 72.20 72.05 71.86 72.73
60.78 62.52 63.94 64.55 63.64 64.07 64.51 62.19 63.50 66.06 68.65 69.10 68.87 68.32 67.62 67.59 68.17 68.93 69.69 69.12 69.67 68.38 68.31 70.14 71.54 71.60 71.89 71.10 70.27 70.43 71.01 72.12 72.33 73.06 72.48 72.87 71.64 69.95 73.47 73.46 71.78 71.26 71.88 71.39 73.16 72.48 71.52 69.36 68.71
62.57 63.31 63.16 62.89 62.71 63.82 60.78 62.40 62.60 66.87 68.75 68.02 67.83 67.16 67.80 67.60 68.26 68.69 68.53 68.57 68.68 68.84 68.47 71.00 71.18 72.19 72.14 73.13 71.78 70.64 73.56 71.73 74.64 75.03 74.05 73.06 73.40 72.30 72.58 72.21 72.80 73.07 71.91 69.22 72.77 72.45 72.57 71.54 70.84
62.50 60.07 62.48 62.78 63.45 63.31 63.85 60.06 60.97 67.01 67.89 66.83 67.07 67.12 67.60 67.79 68.51 68.28 68.87 68.69 68.96 68.86 70.05 70.71 71.27 72.88 72.33 71.97 72.13 73.24 72.63 71.81 70.59 74.66 73.87 73.97 72.77 72.36 72.76 73.22 72.67 72.03 72.56 71.48 73.20 72.26 70.27 68.73 69.99
58.31 59.19 54.79 61.24 62.30 63.49 62.97 55.36 62.49 66.55 66.40 65.44 66.46 67.25 67.33 67.67 68.40 69.12 69.81 69.58 70.00 70.45 70.52 71.28 72.36 72.56 72.86 72.04 72.44 72.88 72.08 72.82 72.30 74.07 73.60 73.92 74.44 74.48 71.60 71.21 72.33 72.86 73.43 73.42 71.76 71.95 70.94 68.61 70.24
54.21 51.29 53.30 57.13 61.74 61.84 61.12 57.05 62.30 64.33 65.55 65.11 65.97 66.68 67.04 67.24 68.57 69.31 70.22 70.14 70.64 70.38 70.86 71.12 71.46 71.43 72.35 72.16 73.02 72.11 72.12 72.14 72.87 74.18 73.53 73.58 74.29 75.23 72.46 71.57 70.55 68.01 73.08 73.10 72.40 70.14 70.95 69.29 70.23
49.09 50.66 53.67 54.74 59.58 60.63 56.81 55.15 61.28 63.45 64.00 64.54 65.68 66.10 66.36 67.18 68.00 69.78 70.57 71.10 70.60 69.98 70.91 70.60 71.35 71.26 71.69 73.05 72.92 71.64 71.02 72.17 72.29 72.27 73.64 74.39 74.80 75.72 74.30 72.44 70.83 71.19 72.23 73.54 72.82 69.36 66.96 66.66 66.73
55.08 54.22 53.67 56.25 60.53 57.84 56.70 55.46 61.19 62.28 64.36 63.93 64.45 65.52 65.87 66.33 67.86 70.09 70.75 70.48 69.65 70.68 70.92 70.38 71.17 71.80 71.34 72.87 71.51 71.11 69.50 70.35 71.10 71.58 74.69 74.85 74.90 75.29 74.13 72.22 72.28 72.60 72.14 70.63 72.53 69.29 68.31 67.48 66.50
53.98 53.20 53.93 55.91 58.04 57.55 55.50 54.89 58.06 62.22 63.33 63.69 64.52 63.33 65.86 66.51 67.20 68.31 68.32 69.21 69.50 70.53 70.52 70.94 71.62 72.37 71.82 72.56 71.71 71.01 71.24 70.75 71.22 71.42 73.76 75.41 75.36 75.30 75.16 73.75 73.36 73.13 72.56 72.08 71.91 70.09 68.67 66.85 66.98
51.79 51.86 52.84 52.74 55.31 56.59 55.92 53.73 55.96 61.91 63.26 62.23 64.24 65.22 66.84 66.63 66.66 67.16 67.64 68.27 69.58 70.36 70.44 71.05 71.42 73.34 72.52 72.77 72.67 71.93 71.66 71.39 70.70 70.45 70.10 74.10 74.63 74.73 75.36 74.34 73.96 72.15 73.33 71.86 71.92 70.19 69.66 64.77 66.22
48.55 54.93 55.59 54.92 52.68 47.60 55.45 45.47 51.88 56.87 60.32 62.00 64.31 65.64 65.83 66.58 67.56 67.74 67.80 67.99 68.90 70.42 71.79 71.38 72.23 73.89 73.23 73.31 72.59 71.50 70.75 69.21 69.91 69.76 70.44 72.91 74.74 75.27 75.38 75.04 74.30 73.74 73.53 72.52 72.11 72.21 69.57 66.97 63.12
51.46 55.14 54.55 54.55 52.18 50.86 52.68 49.04 52.00 54.64 55.10 60.87 63.53 64.27 64.71 67.37 67.43 67.63 68.02 68.80 69.22 70.79 71.85 71.92 72.17 73.57 73.80 73.43 72.60 72.04 70.45 69.86 69.21 70.33 69.76 71.70 72.82 74.00 76.40 74.96 74.61 73.63 73.94 72.56 72.33 72.93 70.79 68.88 67.78
56.18 53.13 51.46 53.15 51.41 45.46 48.56 50.66 50.73 52.69 54.61 61.24 63.60 64.57 66.12 68.18 68.36 68.06 69.21 69.40 69.24 71.11 72.18 72.56 72.08 72.58 73.80 73.23 73.10 71.80 70.84 69.31 69.16 67.89 68.69 71.02 73.47 74.48 75.43 75.83 75.01 75.06 74.20 73.47 73.36 72.96 71.18 71.33 70.53
53.08 47.75 41.27 40.47 42.06 42.09 46.96 45.81 47.93 55.02 57.02 58.97 62.42 64.60 65.44 67.47 67.62 67.80 68.06 68.24 68.97 70.01 71.03 72.42 72.17 71.73 73.46 73.19 72.50 73.24 71.66 71.26 69.16 68.87 68.65 69.85 73.06 73.60 74.34 75.67 74.85 74.65 74.61 74.93 74.35 74.74 73.01 71.65 71.11
50.37 48.31 41.50 36.22 38.15 41.67 46.07 42.62 47.91 54.44 56.73 60.00 64.01 65.56 66.79 66.48 67.88 68.16 68.35 68.63 69.00 69.58 70.91 72.09 72.13 72.06 72.75 73.91 72.78 72.17 73.89 72.73 71.92 71.78 71.07 70.17 72.26 73.53 74.13 75.13 75.68 74.88 75.11 74.89 74.97 74.49 74.80 73.68 71.55
48.01 45.03 46.80 39.02 41.65 38.37 41.70 45.35 50.43 53.76 54.60 55.36 58.35 64.93 65.10 65.63 67.91 68.38 68.78 68.93 68.89 69.71 71.02 71.53 72.38 72.22 73.07 73.51 73.96 73.05 72.75 74.68 72.16 71.07 72.09 69.79 71.33 73.25 74.61 75.03 75.77 75.13 75.21 74.88 74.42 75.17 73.83 74.20 72.74
48.79 49.21 42.30 42.87 34.62 35.38 41.49 43.41 45.57 49.12 51.38 54.12 55.05 60.68 64.06 66.61 68.36 68.92 68.96 69.22 69.61 70.11 71.42 72.02 72.91 72.85 73.21 73.71 74.34 74.44 73.28 72.75 74.56 71.82 71.10 73.07 72.02 71.93 74.43 75.00 74.94 75.20 75.50 75.24 74.43 74.72 74.63 73.62 73.66
46.87 45.57 45.89 42.69 40.88 36.20 36.69 42.54 50.01 51.23 52.96 53.51 55.60 57.10 62.11 65.69 68.03 69.35 69.66 70.15 69.99 70.38 71.04 71.60 72.28 73.44 73.83 74.43 74.18 74.87 74.65 73.93 73.80 73.94 71.85 73.48 73.28 74.33 73.69 75.09 74.83 75.02 75.13 75.47 74.64 74.23 73.94 74.02 73.35
50.88 47.37 46.04 42.28 38.38 40.80 39.44 43.13 53.45 53.39 55.04 55.37 56.40 57.35 61.19 65.22 67.83 69.77 70.06 70.47 70.04 69.78 70.38 71.00 71.99 73.49 74.35 74.93 74.77 74.58 75.32 75.27 73.68 73.85 74.14 72.26 74.48 74.19 75.21 75.92 75.52 75.61 75.24 75.17 75.08 74.34 74.75 72.97 73.05
MSLP
1010.34 1010.70 1010.91 1010.81 1011.38 1010.23 1008.56 1007.53 1006.76 1006.80 1007.02 1006.04 1005.70 1006.34 1007.54 1008.72 1009.96 1012.22 1013.07 1013.53 1013.74 1014.42 1014.66 1014.69 1015.02 1015.36 1015.67 1015.85 1016.04 1016.26 1016.42 1016.55 1016.66 1016.77 1016.85 1016.86 1016.85 1016.92 1017.09 1017.25 1017.30 1017.39 1017.50 1017.59 1017.63 1017.70 1017.71 1017.71 1017.79
1009.97 1010.43 1010.74 1010.46 1010.14 1008.46 1007.40 1006.07 1005.68 1005.16 1004.85 1005.20 1005.83 1006.39 1007.51 1009.67 1010.81 1011.85 1012.91 1013.37 1013.46 1014.20 1014.62 1014.80 1015.11 1015.43 1015.89 1016.05 1016.29 1016.52 1016.67 1016.79 1016.96 1017.08 1017.16 1017.16 1017.19 1017.29 1017.42 1017.52 1017.56 1017.58 1017.67 1017.76 1017.80 1017.84 1017.83 1017.86 1017.88
1009.64 1009.58 1010.40 1010.09 1009.57 1007.40 1006.57 1005.19 1004.42 1004.24 1004.61 1004.96 1005.87 1006.67 1008.00 1010.36 1011.25 1011.90 1012.59 1012.93 1013.39 1014.04 1014.68 1015.00 1015.26 1015.63 1015.97 1016.20 1016.43 1016.72 1016.86 1017.06 1017.22 1017.36 1017.51 1017.54 1017.52 1017.61 1017.78 1017.87 1017.93 1017.98 1017.96 1017.96 1017.98 1018.05 1018.12 1018.12 1018.12
1009.54 1010.05 1010.20 1009.15 1008.62 1007.25 1005.87 1004.06 1003.53 1003.88 1004.68 1005.06 1006.13 1007.84 1009.45 1010.15 1011.04 1011.57 1012.37 1012.89 1013.38 1014.23 1014.76 1015.10 1015.41 1015.78 1016.10 1016.32 1016.66 1016.90 1017.07 1017.27 1017.46 1017.61 1017.73 1017.77 1017.81 1017.94 1017.95 1018.00 1018.06 1018.10 1018.12 1018.12 1018.14 1018.15 1018.19 1018.25 1018.30
1009.31 1009.78 1010.19 1010.06 1008.39 1006.47 1004.76 1003.32 1003.48 1003.95 1004.77 1005.78 1006.33 1009.06 1010.36 1011.18 1011.27 1012.04 1012.30 1012.86 1013.39 1014.22 1014.76 1015.30 1015.64 1015.94 1016.26 1016.50 1016.83 1017.10 1017.25 1017.48 1017.67 1017.81 1017.87 1017.92 1018.11 1018.19 1018.19 1018.15 1018.22 1018.24 1018.24 1018.25 1018.27 1018.28 1018.28 1018.38 1018.44
1009.67 1010.48 1010.48 1009.67 1008.01 1005.42 1004.16 1002.60 1003.06 1004.01 1005.29 1006.70 1007.93 1009.04 1010.64 1011.65 1011.84 1012.27 1012.56 1012.88 1013.30 1014.20 1014.79 1015.42 1015.91 1016.07 1016.37 1016.63 1017.02 1017.25 1017.45 1017.67 1017.93 1018.02 1018.11 1018.28 1018.28 1018.42 1018.38 1018.33 1018.39 1018.40 1018.42 1018.39 1018.42 1018.48 1018.54 1018.53 1018.63
1009.21 1011.21 1010.78 1009.54 1008.15 1004.60 1002.46 1002.12 1002.79 1003.97 1005.35 1006.76 1007.61 1009.07 1010.87 1011.82 1012.17 1012.40 1012.62 1012.73 1013.29 1014.01 1014.85 1015.50 1015.93 1016.16 1016.49 1016.83 1017.13 1017.42 1017.69 1017.86 1018.10 1018.25 1018.45 1018.45 1018.51 1018.46 1018.61 1018.67 1018.59 1018.47 1018.44 1018.51 1018.61 1018.66 1018.76 1018.78 1018.81
1008.47 1011.39 1010.29 1009.52 1006.56 1005.43 1002.37 1001.90 1003.26 1003.78 1005.06 1006.34 1007.31 1009.02 1010.37 1011.42 1011.97 1012.32 1012.53 1012.77 1013.36 1014.17 1014.81 1015.51 1016.02 1016.31 1016.72 1016.99 1017.19 1017.55 1017.78 1018.00 1018.08 1018.19 1018.34 1018.48 1018.63 1018.70 1018.72 1018.87 1018.86 1018.72 1018.54 1018.50 1018.53 1018.71 1018.73 1018.82 1018.89
1007.11 1009.73 1009.15 1008.04 1006.11 1005.35 1004.22 1002.33 1003.17 1003.61 1005.02 1006.23 1006.87 1008.29 1009.88 1010.90 1011.79 1012.23 1012.64 1013.04 1013.53 1014.25 1014.77 1015.35 1015.92 1016.37 1016.78 1016.99 1017.26 1017.55 1017.84 1017.99 1017.99 1018.00 1018.31 1018.65 1018.68 1018.70 1018.79 1018.93 1018.84 1018.74 1018.66 1018.48 1018.48 1018.68 1018.77 1018.84 1019.08
1006.55 1007.93 1007.42 1006.02 1005.82 1005.05 1004.41 1003.92 1003.21 1004.24 1005.90 1007.27 1008.13 1009.64 1010.22 1010.87 1011.45 1012.02 1012.48 1012.85 1013.37 1013.95 1014.52 1015.15 1015.57 1016.16 1016.62 1016.75 1017.27 1017.74 1017.77 1017.84 1017.96 1018.36 1018.85 1018.72 1019.02 1018.85 1018.70 1018.82 1018.84 1018.75 1018.70 1018.78 1018.65 1018.65 1018.98 1018.77 1018.88
1005.09 1005.91 1005.41 1005.10 1005.36 1004.94 1004.00 1003.77 1003.39 1004.43 1006.26 1006.46 1007.82 1009.18 1009.98 1010.69 1011.33 1011.76 1012.26 1012.55 1012.97 1013.43 1014.11 1014.75 1015.30 1015.75 1016.27 1016.57 1017.20 1017.50 1017.61 1017.73 1018.06 1018.29 1018.10 1018.19 1018.36 1018.49 1019.04 1019.01 1019.18 1019.36 1019.12 1019.14 1018.79 1018.63 1019.13 1019.04 1018.67
1003.96 1003.91 1004.47 1004.55 1004.68 1004.38 1003.36 1003.29 1003.05 1003.60 1005.47 1006.58 1007.42 1008.47 1009.40 1010.28 1010.93 1011.30 1011.73 1012.23 1012.62 1013.09 1013.65 1014.25 1014.69 1015.30 1016.02 1016.40 1016.70 1016.88 1017.24 1017.41 1017.99 1017.95 1017.36 1018.03 1018.00 1018.50 1019.47 1019.27 1019.39 1019.15 1019.21 1019.35 1019.16 1019.03 1019.05 1019.05 1018.54
1002.52 1002.89 1003.00 1002.95 1004.16 1003.81 1002.89 1002.37 1003.51 1003.61 1005.06 1006.68 1007.59 1009.02 1009.58 1010.23 1010.72 1011.06 1011.20 1011.74 1012.09 1012.59 1013.07 1013.71 1014.33 1014.98 1015.60 1016.10 1016.25 1016.56 1016.85 1017.12 1017.44 1018.03 1018.01 1018.57 1018.76 1018.98 1019.26 1018.98 1019.53 1019.39 1019.26 1019.21 1018.87 1018.83 1018.92 1018.80 1018.67
1001.36 1001.74 1002.07 1002.16 1002.25 1003.25 1003.15 1002.44 1003.33 1004.36 1005.20 1006.81 1007.77 1008.62 1009.55 1010.03 1010.29 1010.60 1010.92 1011.20 1011.58 1012.00 1012.57 1013.37 1014.00 1014.51 1015.06 1015.80 1016.12 1016.25 1016.11 1016.76 1016.79 1017.11 1017.86 1018.40 1018.58 1018.94 1018.86 1018.94 1019.14 1019.03 1019.17 1019.04 1018.68 1018.54 1018.57 1018.57 1018.62
1000.87 1001.06 1001.87 1002.35 1001.96 1002.41 1003.90 1003.27 1003.19 1003.88 1004.13 1005.95 1007.66 1008.36 1008.94 1009.48 1009.91 1010.09 1010.35 1010.61 1010.83 1011.29 1011.91 1012.98 1013.69 1014.13 1014.78 1015.41 1015.60 1015.72 1015.96 1016.09 1016.88 1016.72 1017.33 1017.74 1018.05 1018.61 1018.59 1018.83 1018.98 1018.71 1018.61 1018.58 1018.58 1018.88 1018.99 1018.94 1018.92
1000.67 1000.48 1000.78 1000.57 1001.05 1001.22 1002.68 1002.47 1002.82 1003.34 1004.21 1005.36 1006.82 1007.88 1008.25 1008.79 1009.09 1009.44 1009.59 1009.90 1010.41 1010.94 1011.62 1012.60 1013.30 1013.96 1014.48 1015.08 1015.41 1015.62 1015.98 1016.20 1016.38 1016.56 1016.97 1017.33 1017.55 1017.94 1018.59 1018.92 1018.63 1018.97 1019.01 1018.89 1018.83 1019.06 1019.16 1019.33 1019.30
1000.36 1000.19 999.87 999.45 999.26 999.16 1000.54 1001.23 1002.18 1002.53 1003.76 1004.70 1005.77 1006.83 1007.41 1008.07 1008.51 1008.76 1008.88 1009.35 1009.87 1010.41 1011.22 1012.11 1012.89 1013.64 1014.26 1014.86 1015.27 1015.65 1015.95 1016.17 1016.24 1016.61 1016.69 1016.97 1017.23 1017.71 1018.33 1018.69 1018.72 1018.86 1018.82 1018.49 1018.90 1019.18 1019.30 1019.41 1019.34
1000.20 999.79 999.13 998.62 998.12 998.41 998.72 999.59 1001.56 1002.37 1002.95 1003.69 1005.22 1006.16 1006.41 1007.00 1007.42 1007.91 1008.28 1008.53 1009.20 1009.77 1010.69 1011.50 1012.38 1013.19 1013.96 1014.61 1015.20 1015.78 1016.13 1016.21 1016.18 1016.27 1016.52 1016.71 1017.08 1017.42 1017.90 1018.23 1018.44 1018.35 1018.69 1018.71 1018.83 1019.09 1019.28 1019.39 1019.34
1000.01 999.34 998.60 997.71 997.36 997.39 998.03 998.70 1000.29 1001.93 1002.82 1003.72 1004.73 1005.99 1006.14 1005.87 1006.04 1006.98 1007.38 1007.89 1008.54 1009.29 1010.17 1010.86 1011.85 1012.82 1013.73 1014.52 1015.18 1015.86 1016.23 1016.29 1016.26 1015.99 1016.25 1016.55 1016.89 1017.17 1017.70 1018.12 1018.30 1018.59 1018.69 1018.55 1018.74 1018.89 1019.20 1019.36 1019.33
999.34 998.83 998.16 997.19 996.63 996.88 997.98 998.09 998.41 1000.47 1001.41 1002.71 1005.04 1006.37 1006.23 1006.19 1005.56 1005.82 1006.28 1007.09 1007.82 1008.73 1009.50 1010.41 1011.30 1012.30 1013.16 1013.91 1014.61 1015.26 1015.75 1015.94 1015.90 1015.67 1016.14 1016.25 1016.58 1016.88 1017.24 1017.83 1018.35 1018.30 1018.51 1018.80 1018.84 1018.95 1019.29 1019.47 1019.52
998.50 998.02 997.67 997.17 996.41 996.37 997.05 997.58 998.03 999.27 1000.75 1002.69 1003.69 1004.50 1004.99 1004.58 1004.72 1005.26 1005.68 1006.49 1007.49 1008.30 1008.99 1009.81 1010.67 1011.63 1012.51 1013.35 1014.22 1014.83 1015.42 1015.70 1015.84 1015.81 1015.90 1016.17 1016.17 1016.40 1016.78 1017.32 1017.67 1017.99 1018.40 1018.62 1018.69 1018.76 1019.07 1019.46 1019.66
997.52 997.33 997.33 996.91 996.97 996.42 996.92 997.67 997.74 998.23 999.94 1001.61 1003.33 1003.30 1002.98 1003.96 1003.98 1004.55 1005.12 1005.76 1006.74 1007.69 1008.62 1009.40 1010.19 1011.02 1011.89 1012.73 1013.60 1014.20 1014.62 1015.06 1015.29 1015.41 1015.59 1015.79 1015.91 1016.14 1016.43 1016.96 1017.35 1017.74 1017.98 1018.36 1018.44 1018.63 1018.81 1019.17 1019.66
996.80 997.29 997.19 997.00 997.31 997.51 997.05 997.57 996.82 997.19 998.42 999.93 1000.80 1001.38 1002.06 1002.37 1002.94 1003.29 1004.06 1004.51 1005.57 1007.02 1008.06 1008.88 1009.63 1010.51 1011.35 1012.12 1012.77 1013.50 1014.10 1014.58 1014.73 1014.99 1015.23 1015.49 1015.72 1015.79 1016.02 1016.55 1017.01 1017.54 1017.75 1018.10 1018.29 1018.58 1018.74 1018.93 1019.30
996.67 997.13 997.37 997.23 997.71 997.44 997.28 997.24 996.83 996.32 996.35 997.49 998.69 999.76 1000.44 1001.02 1001.95 1002.37 1003.07 1004.03 1004.92 1006.21 1007.43 1008.51 1009.32 1010.01 1010.62 1011.42 1012.18 1012.79 1013.49 1014.10 1014.59 1014.87 1015.22 1015.32 1015.45 1015.62 1015.68 1016.10 1016.59 1016.92 1017.33 1017.78 1018.02 1018.26 1018.51 1018.80 1019.00
995.88 996.74 997.63 997.86 997.42 997.28 997.11 996.64 996.06 994.64 994.84 995.04 996.21 997.44 998.34 999.16 998.92 1001.12 1002.31 1003.47 1004.12 1005.24 1006.45 1007.54 1008.55 1009.37 1009.86 1010.63 1011.41 1012.23 1012.72 1013.36 1013.87 1014.28 1014.58 1014.94 1015.10 1015.25 1015.48 1015.79 1016.26 1016.64 1016.81 1017.14 1017.39 1017.94 1018.17 1018.42 1018.79
994.80 995.63 996.25 996.98 997.06 997.32 996.98 995.78 994.59 993.93 993.70 993.69 994.06 995.37 996.75 997.97 999.02 999.61 1000.77 1001.92 1002.99 1004.14 1005.37 1006.59 1007.60 1008.40 1009.17 1009.92 1010.62 1011.40 1012.32 1012.66 1012.96 1013.36 1013.70 1013.99 1014.30 1014.51 1014.84 1015.21 1015.40 1015.84 1016.24 1016.65 1016.91 1017.51 1017.83 1018.09 1018.43
993.88 994.42 995.79 996.60 997.20 997.43 996.51 995.50 994.35 993.58 992.78 993.10 993.33 994.18 995.30 996.58 997.48 998.46 999.83 1000.79 1001.97 1003.04 1004.07 1005.18 1006.69 1007.73 1008.57 1009.26 1009.99 1010.67 1011.26 1011.83 1012.15 1012.65 1013.17 1013.51 1013.70 1013.94 1014.27 1014.67 1015.14 1015.46 1015.65 1016.11 1016.68 1017.02 1017.40 1017.69 1018.03
992.18 993.90 995.13 995.80 997.24 997.39 996.72 995.26 993.50 992.96 992.27 992.14 992.56 992.89 993.27 994.24 995.53 997.28 998.71 999.78 1000.91 1001.92 1002.86 1004.27 1005.63 1006.80 1007.61 1008.54 1009.15 1009.60 1010.17 1011.05 1011.64 1012.16 1012.63 1012.91 1013.06 1013.27 1013.65 1014.01 1014.31 1014.75 1015.22 1015.72 1016.16 1016.59 1016.93 1017.27 1017.64
991.53 992.53 993.66 995.34 996.25 996.84 996.40 994.06 991.92 991.70 991.31 991.14 991.39 991.95 992.54 993.32 994.52 995.94 997.50 998.65 999.70 1000.80 1002.16 1003.33 1004.63 1005.90 1006.97 1007.69 1008.49 1009.24 1009.87 1010.47 1011.07 1011.49 1011.81 1012.21 1012.46 1012.57 1012.88 1013.24 1013.86 1014.28 1014.74 1015.25 1015.79 1016.21 1016.62 1017.00 1017.41
991.11 991.57 992.89 994.02 995.28 995.61 995.22 992.54 990.72 989.98 989.55 990.13 990.55 990.89 991.33 992.32 993.49 994.94 996.35 997.55 999.05 1000.13 1001.32 1002.27 1003.42 1004.72 1005.85 1006.80 1007.68 1008.34 1008.97 1009.63 1010.24 1010.63 1011.00 1011.30 1011.68 1011.83 1012.20 1012.67 1013.13 1013.72 1014.36 1014.89 1015.35 1015.63 1015.92 1016.38 1016.82
Wind_Speed
11 9 5 2 2 2 3 6 1 8 10 11 10 9 9 9 3 5 12 9 16 11 6 11 15 17 17 16 15 14 15 14 13 12 14 13 13 13 13 12 12 12 11 11 11 10 9 9 8
10 11 3 3 3 3 3 8 8 10 14 17 15 12 8 6 6 15 12 13 15 13 8 10 16 17 17 16 15 13 15 13 12 12 12 12 11 12 13 11 12 11 11 10 9 9 8 8 6
13 10 1 1 2 3 4 13 11 17 16 11 6 9 7 6 17 16 16 17 16 13 11 12 16 16 17 16 14 14 13 13 11 13 12 11 12 12 12 11 11 11 10 9 9 8 7 6 5
5 1 3 3 6 10 6 8 17 17 12 11 15 10 8 13 14 12 21 15 16 15 13 15 17 17 17 16 15 14 14 12 11 11 11 11 12 12 11 11 11 11 10 10 9 8 7 6 5
1 1 2 1 8 10 10 15 20 15 13 15 10 8 12 5 20 22 19 12 18 15 13 12 17 17 16 16 15 13 13 12 10 10 10 10 10 10 9 10 10 10 10 10 9 7 7 6 5
4 2 2 4 7 12 11 11 21 17 21 20 17 15 7 18 21 17 16 10 18 16 14 12 16 16 16 16 15 13 13 11 9 8 8 9 9 7 7 8 9 9 9 8 8 7 6 6 4
5 4 6 10 10 12 17 16 17 18 17 14 17 11 12 17 17 15 14 12 17 16 13 11 10 14 15 14 13 13 11 10 9 8 7 6 6 7 5 5 7 8 8 7 7 5 5 5 5
6 4 5 7 2 10 12 19 19 22 18 20 15 9 19 20 22 17 10 12 16 16 14 11 8 7 6 7 13 12 10 10 9 7 6 4 2 4 6 5 4 6 5 5 4 3 1 2 2
17 8 8 8 0 6 18 20 17 15 24 9 9 22 20 25 23 14 12 8 11 14 14 12 10 8 7 7 8 10 10 9 8 7 5 3 1 3 4 5 5 5 3 3 2 1 1 2 0
9 4 9 5 6 6 4 7 20 23 21 21 26 21 24 24 19 17 14 12 10 16 15 13 12 10 9 8 6 6 6 5 4 4 6 2 4 4 5 6 5 4 1 4 2 4 3 4 3
11 9 9 4 7 7 9 9 5 24 17 29 30 27 25 22 19 15 14 13 12 16 13 14 13 12 10 8 5 3 3 3 4 8 6 3 2 3 4 2 1 4 3 3 2 4 1 4 4
16 18 9 8 5 5 12 2 8 22 16 25 27 28 25 22 18 16 17 16 17 14 16 16 14 13 8 7 7 7 5 4 4 4 5 4 2 2 3 2 3 1 1 2 3 3 1 6 7
17 15 16 8 7 20 14 7 3 25 28 26 26 25 21 20 19 15 15 15 18 13 17 18 15 12 10 9 6 4 5 5 6 6 6 3 1 3 6 4 2 3 1 3 3 4 3 2 3
15 16 15 12 12 16 14 6 7 21 27 27 27 26 21 21 20 15 14 17 17 15 17 18 16 11 13 8 5 5 4 6 9 8 8 10 3 4 4 3 5 4 4 3 2 1 3 3 3
18 16 16 15 19 9 11 5 13 20 31 29 26 25 24 25 22 19 18 13 15 11 18 19 16 11 11 7 5 2 2 4 5 6 7 9 7 6 4 4 2 2 4 3 1 4 1 1 4
17 17 15 14 14 14 21 14 8 24 28 29 27 25 25 26 26 21 21 17 13 12 20 18 15 11 9 8 5 1 0 1 4 7 5 8 7 6 5 4 2 3 3 4 1 1 2 2 2
11 13 12 9 25 8 28 13 22 18 24 27 25 25 24 24 25 24 23 20 19 15 20 18 16 13 9 8 6 4 2 2 2 5 6 7 7 7 6 4 3 3 2 1 3 3 2 2 3
12 7 10 15 17 16 9 8 24 21 22 26 23 20 18 26 26 26 25 22 17 18 20 18 14 15 11 7 6 4 2 3 3 3 5 7 6 7 5 3 2 0 1 3 2 2 1 3 3
13 17 15 13 14 10 14 11 30 28 19 22 15 19 20 19 20 26 25 20 20 17 17 18 16 15 11 6 7 4 5 3 3 3 7 8 6 7 7 4 4 3 4 4 3 1 3 3 2
19 21 19 15 16 10 10 13 14 34 30 30 20 11 19 19 17 19 17 18 20 18 19 15 15 17 13 9 8 4 5 4 4 3 6 7 7 7 6 6 5 5 3 2 3 3 1 1 2
22 22 18 15 15 17 16 16 10 22 25 24 33 33 25 26 24 19 19 16 18 19 20 17 16 17 14 11 7 4 3 2 3 3 3 5 7 7 7 7 5 4 3 4 4 4 4 3 1
21 19 21 21 13 6 2 4 8 13 23 26 28 24 26 24 22 20 21 19 18 18 18 18 16 16 14 13 12 12 10 8 4 5 4 5 8 7 8 7 7 6 4 5 4 4 3 4 3
15 14 23 23 15 6 18 11 14 10 16 29 28 30 25 23 22 24 26 24 21 19 19 18 18 16 15 15 13 10 8 4 4 3 7 6 7 8 7 8 7 6 4 5 5 4 4 3 3
15 16 15 17 13 14 12 17 17 14 13 26 30 30 28 24 21 24 26 22 20 18 19 17 18 17 16 15 11 14 9 8 5 5 4 4 5 7 7 8 7 6 6 6 5 6 6 5 3
19 11 9 12 13 13 10 7 11 12 13 18 29 30 29 28 28 26 25 23 20 21 22 19 21 20 18 18 17 11 13 10 10 7 7 6 5 6 7 7 8 6 6 6 6 6 6 6 4
22 20 10 16 9 10 8 10 10 12 7 15 22 31 31 27 26 28 28 26 23 23 24 22 22 21 21 19 19 17 9 10 10 8 5 7 6 8 10 8 10 10 9 7 6 5 5 5 5
20 22 12 3 7 3 4 7 13 17 15 9 10 24 33 29 29 29 28 25 24 22 25 25 22 21 20 20 17 17 16 12 13 13 5 5 6 7 11 11 11 12 11 9 8 5 7 6 6
18 12 13 9 10 10 10 13 16 15 20 13 11 19 25 27 30 29 26 25 23 23 22 23 21 22 21 20 17 17 17 15 8 9 9 8 7 8 7 13 14 14 13 11 9 6 5 7 6
12 13 16 6 6 7 6 11 11 22 22 21 12 12 20 24 28 28 26 24 25 24 20 22 21 22 20 19 17 15 15 14 14 9 11 10 8 7 7 11 12 13 13 11 10 7 7 6 6
16 15 15 11 12 5 5 13 6 6 27 22 18 12 16 23 25 27 27 25 23 23 21 23 21 21 20 19 18 18 15 15 15 16 9 13 11 11 7 9 12 11 11 11 10 11 10 9 8
Wind_Direction
157 173 220 133 270 219 234 210 105 165 173 198 121 114 94 48 120 143 139 168 132 130 140 123 124 120 121 118 114 111 112 107 107 103 94 94 93 96 96 97 98 101 102 102 103 108 102 89 83
167 179 188 246 251 319 229 149 207 189 112 111 115 108 59 76 75 122 126 159 134 139 131 122 122 123 124 123 119 121 115 112 103 103 97 96 86 101 92 90 99 95 98 103 105 102 101 97 92
172 184 222 207 305 259 217 175 141 120 117 118 103 56 69 84 117 138 136 149 139 140 123 131 127 129 131 124 125 115 115 108 110 99 99 92 89 90 92 92 91 93 95 97 99 100 99 102 109
204 143 264 235 264 272 256 115 144 119 102 108 113 76 53 119 137 136 152 158 145 123 123 128 135 135 131 127 122 122 117 118 107 103 102 92 93 90 95 99 100 101 100 99 97 99 100 103 110
51 330 352 303 277 250 230 168 126 120 126 104 90 90 116 122 118 139 152 157 125 124 126 129 134 137 130 126 129 127 125 119 116 115 109 102 89 89 97 97 99 100 95 91 90 89 94 103 111
111 297 352 259 292 289 259 128 123 117 100 100 102 111 93 121 131 150 154 153 122 129 127 133 137 135 129 133 133 131 126 124 122 117 112 106 106 97 94 108 110 103 96 93 91 89 94 112 111
109 79 327 311 312 300 139 142 125 124 123 113 132 110 130 128 141 155 166 142 127 130 128 132 139 135 138 136 136 132 128 127 123 117 112 116 118 120 117 109 115 107 99 93 89 87 90 115 127
141 91 185 263 232 302 77 110 113 134 130 133 130 139 149 143 147 161 154 148 136 131 133 141 142 128 133 136 141 138 137 131 129 132 129 124 142 151 147 149 122 108 108 104 101 94 58 96 153
204 167 251 235 157 334 18 96 121 110 131 145 179 139 136 139 154 151 149 159 145 141 144 146 149 150 145 137 150 149 145 147 154 162 146 31 309 223 189 212 158 130 121 137 121 151 234 277 290
177 138 225 239 356 327 301 275 132 113 108 101 113 127 139 151 157 161 164 165 145 151 151 154 157 160 150 156 145 151 174 179 174 109 74 88 333 281 183 158 168 127 104 331 49 312 327 269 197
198 183 236 260 246 300 257 341 299 119 124 141 143 147 154 151 159 165 160 169 161 156 157 160 160 162 166 143 167 174 185 182 149 123 175 117 50 43 18 81 117 10 31 320 345 303 312 267 264
225 215 191 211 22 358 250 182 306 140 150 146 145 154 158 152 164 172 174 167 168 167 165 164 162 170 154 158 179 180 176 178 146 178 161 110 149 190 111 262 165 256 121 273 250 277 281 254 270
239 176 210 222 155 200 238 180 314 130 138 144 145 154 159 157 171 183 171 163 174 179 170 166 166 164 153 166 192 173 188 173 165 179 177 88 129 246 206 195 138 257 252 237 225 226 168 303 18
246 188 190 146 319 188 219 141 140 137 136 145 154 158 166 164 177 172 185 177 188 182 169 162 169 163 156 168 171 197 196 153 169 184 144 153 124 236 198 199 176 199 212 232 191 87 49 341 19
256 258 187 184 176 189 231 164 160 156 150 151 160 164 170 174 180 174 189 196 189 186 157 161 168 160 150 150 142 107 77 146 143 166 151 154 169 186 137 105 111 229 275 213 173 86 66 261 341
255 256 236 189 227 197 191 201 189 162 152 155 165 174 177 178 181 184 187 195 195 182 156 159 166 159 147 143 143 145 46 348 133 149 160 153 160 127 127 99 168 144 282 243 205 80 214 198 208
255 244 229 197 212 185 190 148 183 174 155 163 170 181 183 181 182 186 193 187 193 174 156 161 163 163 151 150 147 172 231 303 275 169 163 165 161 144 125 165 192 199 227 203 172 221 156 231 259
232 231 235 219 236 213 221 177 169 182 179 166 168 184 192 177 189 186 193 194 185 162 161 162 163 164 160 149 139 159 208 269 258 177 183 162 162 158 140 179 219 214 293 130 173 172 131 162 197
236 243 230 243 226 213 211 214 171 187 154 142 172 194 193 196 178 183 189 186 167 163 159 168 152 162 161 155 159 160 193 215 239 225 169 165 166 164 146 175 203 241 213 188 171 126 89 35 56
235 245 251 232 239 222 241 229 164 180 164 159 167 236 198 195 193 177 174 169 169 166 166 162 153 161 168 170 173 157 175 195 202 213 167 173 170 174 159 167 190 198 189 228 203 144 88 143 147
231 234 245 244 243 242 186 221 214 165 162 159 168 197 202 187 189 180 180 174 167 168 172 167 164 161 166 163 160 164 177 192 179 206 187 193 174 170 164 177 186 194 168 191 176 155 158 140 20
223 233 246 253 260 188 229 252 238 175 174 167 171 162 205 194 188 180 182 178 175 174 173 171 166 162 166 162 173 187 201 204 186 181 188 181 174 181 179 179 183 188 183 190 193 169 169 118 160
226 227 238 250 258 256 203 209 232 201 192 175 172 179 192 188 189 183 187 183 184 171 174 175 173 169 169 176 181 184 194 179 182 174 183 182 191 188 182 179 179 190 170 185 195 177 165 156 150
220 221 248 246 247 252 237 205 235 204 185 169 178 180 190 170 193 191 189 184 178 170 171 173 177 178 173 180 177 192 186 186 186 196 189 184 192 195 191 178 173 181 172 187 198 189 176 169 143
217 203 229 237 228 232 229 231 226 210 209 185 184 177 179 181 185 188 182 185 178 170 175 174 177 185 184 185 195 188 194 185 192 198 197 187 175 191 196 171 180 181 178 190 184 180 187 178 173
207 215 208 215 208 231 235 240 251 260 236 224 185 169 178 181 193 181 182 182 183 175 175 178 183 186 189 187 193 200 196 200 203 194 190 197 184 184 195 186 184 184 184 186 189 189 187 179 190
204 216 215 260 211 248 207 254 262 259 270 209 208 176 177 186 192 179 182 182 183 177 177 180 182 189 189 193 192 197 201 204 204 209 190 192 194 187 194 191 179 186 186 190 192 188 189 180 188
212 173 214 211 198 221 234 218 232 234 246 240 211 195 184 176 176 176 179 181 182 183 181 179 181 187 190 193 196 199 202 205 198 190 199 202 208 212 172 198 191 184 187 192 190 193 191 192 191
198 194 200 181 188 179 207 239 225 223 221 230 218 183 191 173 173 173 177 181 181 183 176 180 181 186 190 194 198 199 201 203 206 196 202 208 207 208 186 182 187 188 188 187 192 197 194 198 186
225 212 196 203 229 222 196 258 316 261 207 208 216 206 180 176 171 169 175 180 178 181 179 182 182 184 189 191 192 200 198 197 203 211 196 205 214 213 191 185 185 183 191 193 189 193 198 196 192